Tracking 28790 objects as of 19-Apr-2024
HD Live streaming from Space Station
objects crossing your sky now

ATLAS 2AS CENTAUR R/B

Track ATLAS 2AS CENTAUR R/B now!
10-day predictions


NORAD ID: 26858
Int'l Code: 2001-026B
Perigee: 9,812.4 km
Apogee: 10,122.4 km
Inclination: 44.9 °
Period: 346.4 minutes
Semi major axis: 16338 km
RCS: 28.933 m2 (large)
Launch date: June 19, 2001
Source: United States (US)
Launch site: AIR FORCE EASTERN TEST RANGE (AFETR)

Note: This is a ROCKET BODY
Your satellite tracking list
Your tracking list is empty




NASA's NSSDC Master Catalog

Two Line Element Set (TLE):
1 26858U 01026B   24109.54350380 -.00000017  00000-0  00000-0 0  9991
2 26858  44.8504 191.4812 0094873 255.2260 199.4508  4.15707825346733
Source of the keplerian elements: AFSPC